TimeEDT,TemperatureF,Dew PointF,Humidity,Sea Level PressureIn,VisibilityMPH,Wind Direction,Wind SpeedMPH,Gust SpeedMPH,PrecipitationIn,Events,Conditions,WindDirDegrees,DateUTC
12:23 AM,77.0,75.2,94,30.20,9.0,SW,8.1,-,N/A,,Mostly Cloudy,220,2012-10-04 04:23:00
12:32 AM,77.0,75.2,94,30.20,9.0,SW,8.1,-,N/A,,Mostly Cloudy,230,2012-10-04 04:32:00
12:57 AM,77.0,75.0,94,30.21,9.0,SW,9.2,-,N/A,,Overcast,220,2012-10-04 04:57:00
1:25 AM,77.0,75.2,94,30.19,9.0,WSW,5.8,-,N/A,,Overcast,240,2012-10-04 05:25:00
1:57 AM,75.9,75.0,97,30.20,8.0,WSW,5.8,-,N/A,,Mostly Cloudy,240,2012-10-04 05:57:00
2:10 AM,75.2,73.4,94,30.18,8.0,WSW,4.6,-,N/A,,Scattered Clouds,240,2012-10-04 06:10:00
2:57 AM,75.0,73.0,94,30.18,10.0,West,3.5,-,N/A,,Clear,280,2012-10-04 06:57:00
3:57 AM,73.9,71.1,91,30.19,10.0,WSW,3.5,-,N/A,,Clear,240,2012-10-04 07:57:00
4:57 AM,73.9,71.1,91,30.19,10.0,West,3.5,-,N/A,,Clear,260,2012-10-04 08:57:00
5:57 AM,73.0,71.1,93,30.21,10.0,West,3.5,-,N/A,,Clear,260,2012-10-04 09:57:00
6:57 AM,72.0,70.0,93,30.22,9.0,Calm,Calm,-,N/A,,Clear,0,2012-10-04 10:57:00
7:57 AM,73.0,71.1,93,30.22,6.0,Calm,Calm,-,N/A,,Partly Cloudy,0,2012-10-04 11:57:00
8:57 AM,77.0,71.1,82,30.24,10.0,WNW,3.5,-,N/A,,Partly Cloudy,300,2012-10-04 12:57:00
9:57 AM,80.1,69.1,69,30.24,10.0,NNW,6.9,-,N/A,,Partly Cloudy,340,2012-10-04 13:57:00
10:57 AM,81.0,68.0,65,30.23,10.0,WNW,5.8,-,N/A,,Scattered Clouds,290,2012-10-04 14:57:00
11:57 AM,82.0,68.0,62,30.22,10.0,NW,6.9,-,N/A,,Scattered Clouds,310,2012-10-04 15:57:00
12:57 PM,82.0,69.1,65,30.21,10.0,NNW,6.9,-,N/A,,Mostly Cloudy,340,2012-10-04 16:57:00
1:57 PM,81.0,68.0,65,30.19,10.0,Calm,Calm,-,N/A,,Mostly Cloudy,0,2012-10-04 17:57:00
2:57 PM,80.1,69.1,69,30.18,10.0,Calm,Calm,-,N/A,,Mostly Cloudy,0,2012-10-04 18:57:00
4:57 PM,79.0,70.0,74,30.16,10.0,SSW,6.9,-,N/A,,Scattered Clouds,210,2012-10-04 20:57:00
5:57 PM,78.1,71.1,79,30.16,10.0,SSW,5.8,-,N/A,,Clear,210,2012-10-04 21:57:00
6:57 PM,77.0,71.1,82,30.17,10.0,SW,4.6,-,N/A,,Scattered Clouds,220,2012-10-04 22:57:00
7:57 PM,75.0,71.1,87,30.17,10.0,NNW,3.5,-,N/A,,Clear,330,2012-10-04 23:57:00
9:57 PM,73.0,70.0,90,30.18,10.0,WNW,3.5,-,N/A,,Clear,300,2012-10-05 01:57:00
10:57 PM,72.0,68.0,87,30.19,10.0,NW,3.5,-,N/A,,Clear,310,2012-10-05 02:57:00
11:57 PM,71.1,66.9,87,30.19,10.0,NW,3.5,-,N/A,,Clear,320,2012-10-05 03:57:00